This demonstration page uses our WeatherBlox Daily Observations layout. Learn more.

Left ArrowRight Arrow

31.84235, -102.49876

Hourly Observations for March 10, 2015

Temp ( °F °C ) Dew Point ( °F °C ) Humidity (%) Winds ( mph kmh ) Pressure ( in mb ) Visibility ( mi km ) Precip ( " mm )
12:53 am 00:53 Clear with Mist and Fog 42 5.6 40 4.4 92 92 Calm 29.98 1015 4 6 0.00 0.00
1:14 am 01:14 Clear with Mist and Fog 40 4.4 38 3.3 93 93 ENE 6 9 30.09 1019 2 3 0.00 0.00
1:23 am 01:23 Clear with Fog 40 4.4 38 3.3 93 93 ENE 6 9 30.09 1019 1 1 0.00 0.00
1:40 am 01:40 Clear with Fog 40 4.4 39 3.9 97 97 ENE 8 13 30.06 1018 0 0 0.00 0.00
1:53 am 01:53 Clear with Fog 41 5 39 3.9 93 93 ENE 9 15 29.96 1015 0 0 0.00 0.00
2:09 am 02:09 Clear with Fog 41 5 40 4.4 96 96 NE 9 15 30.06 1018 1 1 0.00 0.00
2:20 am 02:20 Clear with Mist and Fog 41 5 39 3.9 93 93 NE 9 15 30.06 1018 1 2 0.00 0.00
2:29 am 02:29 Mostly Cloudy with Fog 41 5 39 3.9 93 93 NE 10 17 30.06 1018 1 1 0.00 0.00
2:38 am 02:38 Mostly Cloudy with Fog 40 4.4 38 3.3 93 93 NE 9 15 30.06 1018 0 0 0.00 0.00
2:49 am 02:49 Mostly Cloudy with Mist and Fog 39 4 37 3 93 93 NE 9 15 30.06 1018 1 1 0.00 0.00
2:53 am 02:53 Mostly Cloudy with Mist and Fog 40 4.4 38 3.3 93 93 NE 10 17 29.95 1014 1 1 0.00 0.00
3:15 am 03:15 Mostly Cloudy with Fog 39 3.9 38 3.3 96 96 NNE 8 13 30.06 1018 0 0 0.00 0.00
3:53 am 03:53 Mostly Cloudy with Fog 39 3.9 37 2.8 93 93 N 6 9 29.95 1014 0 0 0.00 0.00
4:53 am 04:53 Mostly Cloudy with Fog 39 3.9 37 2.8 93 93 WSW 5 7 29.94 1014 5 8 0.00 0.00
5:53 am 05:53 Mostly Cloudy with Fog 38 3.3 36 2.2 93 93 W 6 9 29.96 1014 0 0 0.00 0.00
6:53 am 06:53 Mostly Cloudy with Fog 38 3.3 36 2.2 93 93 N 3 6 29.97 1015 0 0 0.00 0.00
7:09 am 07:09 Mostly Cloudy with Fog 37 2.8 36 2.2 96 96 N 5 7 30.12 1020 1 1 0.00 0.00
7:45 am 07:45 Cloudy with Mist and Fog 36 2.2 34 1.1 93 93 N 6 9 30.12 1020 2 2 0.00 0.00
7:53 am 07:53 Cloudy with Mist and Fog 36 2.2 34 1.1 93 93 N 6 9 30.00 1016 3 4 0.00 0.00
8:00 am 08:00 Cloudy with Mist and Fog 36 2.2 35 1.7 97 97 NNW 5 7 30.12 1020 4 6 0.00 0.00
8:08 am 08:08 Cloudy with Mist and Fog 36 2.2 35 1.7 97 97 NNW 6 9 30.12 1020 2 2 0.00 0.00
8:13 am 08:13 Mostly Cloudy with Fog 37 2.8 35 1.7 93 93 NNW 5 7 30.12 1020 0 0 0.00 0.00
8:53 am 08:53 Cloudy with Fog 37 2.8 37 2.8 100 100 Calm 30.04 1017 0 0 0.00 0.00
9:26 am 09:26 Cloudy with Mist and Fog 40 4.4 39 3.9 97 97 S 3 6 30.15 1021 1 1 0.00 0.00
9:37 am 09:37 Mostly Cloudy with Fog 40 4.4 39 3.9 97 97 Calm 30.15 1021 5 8 0.00 0.00
9:53 am 09:53 Mostly Cloudy with Fog 41 5 41 5 100 100 Calm 30.05 1018 0 0 0.00 0.00
10:24 am 10:24 Cloudy with Mist and Fog 45 7.2 44 6.7 97 97 Calm 30.12 1020 1 2 0.00 0.00
10:29 am 10:29 Mostly Cloudy with Mist and Fog 45 7.2 44 6.7 97 97 Calm 30.12 1020 3 5 0.00 0.00
10:42 am 10:42 Partly Cloudy with Mist and Fog 47 8.3 45 7.2 93 93 SW 3 6 30.12 1020 5 8 0.00 0.00
10:53 am 10:53 Sunny with Mist and Fog 49 9.4 46 7.8 90 90 Calm 30.07 1018 6 10 0.00 0.00
11:53 am 11:53 Sunny 54 12.2 45 7.2 72 72 Calm 30.06 1018 10 16 0.00 0.00
12:53 pm 12:53 Sunny 60 15.6 46 7.8 60 60 Calm 30.05 1018 10 16 0.00 0.00
1:53 pm 13:53 Sunny 63 17.2 43 6.1 48 48 VRB 6 9 30.03 1017 10 16 0.00 0.00
2:53 pm 14:53 Mostly Sunny 65 18.3 43 6.1 45 45 VRB 3 6 30.01 1016 10 16 0.00 0.00
3:53 pm 15:53 Mostly Cloudy 65 18.3 40 4.4 40 40 S 5 7 30.00 1016 10 16 0.00 0.00
4:53 pm 16:53 Sunny 67 19.4 40 4.4 37 37 SSE 7 11 29.98 1015 10 16 0.00 0.00
5:53 pm 17:53 Sunny 67 19.4 37 2.8 33 33 Calm 29.98 1015 10 16 0.00 0.00
6:53 pm 18:53 Sunny 67 19.4 38 3.3 35 35 ENE 6 9 29.99 1016 10 16 0.00 0.00
7:53 pm 19:53 Sunny 63 17.2 40 4.4 43 43 E 5 7 30.02 1017 10 16 0.00 0.00
8:53 pm 20:53 Clear 58 14.4 39 3.9 50 50 E 6 9 30.05 1018 10 16 0.00 0.00
9:53 pm 21:53 Clear 54 12.2 40 4.4 59 59 ESE 6 9 30.08 1019 10 16 0.00 0.00
10:53 pm 22:53 Clear 53 11.7 40 4.4 61 61 ESE 7 11 30.09 1019 10 16 0.00 0.00
11:53 pm 23:53 Mostly Clear 54 12.2 41 5 62 62 NNW 10 17 30.11 1020 10 16 0.00 0.00

Powered by AerisWeather